Weather History for Shirley, NY

Change the Weather History Date:

Sunday, January 6, 2013

  Actual Average (KISP) Record (KISP)
Temperature  
Mean Temperature 37 °F 31 °F  
Max Temperature 44 °F 38 °F 68 °F (2007)
Min Temperature 30 °F 24 °F 6 °F (1996)
Degree Days  
Heating Degree Days 28 34  
Month to date heating degree days 203  
Since 1 July heating degree days 2130  
Cooling Degree Days 0 0  
Month to date cooling degree days 0  
Year to date cooling degree days 0  
Moisture  
Dew Point 30 °F    
Average Humidity 79    
Maximum Humidity 96    
Minimum Humidity 63    
Precipitation  
Precipitation 0.00 in 0.12 in 0.75 in (2014)
Month to date precipitation 0.72  
Year to date precipitation 0.72  
Snow  
Snow 0.00 in 0.30 in 4.40 in (1989)
Month to date snowfall 1.4  
Since 1 July snowfall 7.3  
Snow Depth -    
Sea Level Pressure  
Sea Level Pressure 30.09 in    
Wind  
Wind Speed 5 mph (WSW)    
Max Wind Speed 13 mph    
Max Gust Speed -    
Visibility 8 miles    
Events Snow    
T = Trace of Precipitation, MM = Missing Value Source: NWS Daily Summary

Daily Weather History Graph

Daily Weather History Graph

Search for Another Location

Airport:

Trip Planner

Search our weather history database for the weather conditions in past years. The results will help you decide how hot, cold, wet, or windy it might be!

Date:

Astronomy

Jan. 06, 2013 Rise Set
Actual Time 7:15 AM EST 4:39 PM EST
Civil Twilight 6:45 AM EST 5:09 PM EST
Nautical Twilight 6:11 AM EST 5:44 PM EST
Astronomical Twilight 5:37 AM EST 6:17 PM EST
Moon 1:26 AM EST (1/6) 12:05 PM EST (1/6)
Length of Visible Light 10h 24m
Length of Day
9h 23m
Waning Crescent, 33% of the Moon is Illuminated
Jan 6
Waning Crescent
Jan 11
New
Jan 18
First Quarter
Jan 26
Full
Feb 3
Last Quarter

Hourly Weather History & Observations

Time (EST) Temp. Windchill Dew Point Humidity Pressure Visibility Wind Dir Wind Speed Gust Speed Precip Events Conditions
12:56 AM 30.0 °F 26.5 °F 24.1 °F 79% 30.23 in 7.0 mi SW 3.5 mph - N/A   Partly Cloudy
1:56 AM 33.1 °F 27.7 °F 25.0 °F 72% 30.24 in 10.0 mi West 5.8 mph - N/A   Scattered Clouds
2:56 AM 34.0 °F - 25.0 °F 70% 30.21 in 10.0 mi Calm Calm - N/A   Overcast
3:56 AM 35.1 °F - 26.1 °F 70% 30.17 in 10.0 mi Calm Calm - N/A   Overcast
4:56 AM 34.0 °F 27.2 °F 28.9 °F 82% 30.17 in 4.0 mi WSW 8.1 mph - 0.00 in Snow Light Snow
5:04 AM 33.8 °F 27.7 °F 28.4 °F 81% 30.16 in 4.0 mi WSW 6.9 mph - 0.00 in Snow Light Snow
5:17 AM 33.8 °F 27.7 °F 30.2 °F 87% 30.15 in 4.0 mi WSW 6.9 mph - 0.00 in Snow Light Snow
5:27 AM 33.8 °F 27.7 °F 30.2 °F 87% 30.16 in 4.0 mi WSW 6.9 mph - 0.00 in Snow Light Snow
5:54 AM 33.8 °F 27.7 °F 30.2 °F 87% 30.14 in 2.5 mi WSW 6.9 mph - 0.00 in Snow Light Snow
5:56 AM 34.0 °F 28.8 °F 30.0 °F 85% 30.15 in 2.5 mi WSW 5.8 mph - 0.00 in Snow Light Snow
6:24 AM 33.8 °F 29.6 °F 30.2 °F 87% 30.14 in 3.0 mi SW 4.6 mph - 0.00 in Snow Light Snow
6:56 AM 33.1 °F 30.0 °F 32.0 °F 96% 30.14 in 4.0 mi SSW 3.5 mph - 0.00 in   Overcast
7:03 AM 33.8 °F 30.8 °F 32.0 °F 93% 30.13 in 4.0 mi SSW 3.5 mph - N/A   Overcast
7:56 AM 34.0 °F - 33.1 °F 96% 30.13 in 4.0 mi Calm Calm - N/A   Overcast
8:56 AM 35.1 °F - 33.1 °F 92% 30.12 in 4.0 mi Calm Calm - N/A   Overcast
9:28 AM 35.6 °F 31.7 °F 33.8 °F 93% 30.11 in 6.0 mi WSW 4.6 mph - N/A   Overcast
9:56 AM 37.9 °F 32.7 °F 34.0 °F 86% 30.12 in 8.0 mi West 6.9 mph - N/A   Overcast
10:35 AM 39.2 °F 31.6 °F 33.8 °F 81% 30.10 in 10.0 mi WSW 12.7 mph - N/A   Scattered Clouds
10:56 AM 39.9 °F 33.4 °F 34.0 °F 79% 30.09 in 10.0 mi WSW 10.4 mph - N/A   Clear
11:56 AM 42.1 °F 36.1 °F 34.0 °F 73% 30.03 in 10.0 mi SSW 10.4 mph - N/A   Clear
12:56 PM 44.1 °F 39.5 °F 32.0 °F 63% 30.01 in 10.0 mi WSW 8.1 mph - N/A   Clear
1:56 PM 43.0 °F 37.2 °F 32.0 °F 65% 30.00 in 10.0 mi SSW 10.4 mph - N/A   Clear
2:56 PM 42.1 °F 35.7 °F 32.0 °F 67% 29.99 in 10.0 mi SSW 11.5 mph - N/A   Clear
3:56 PM 42.1 °F 37.7 °F 30.9 °F 65% 29.98 in 10.0 mi SW 6.9 mph - N/A   Clear
4:56 PM 39.9 °F 35.1 °F 30.0 °F 68% 29.99 in 10.0 mi SW 6.9 mph - N/A   Clear
5:56 PM 37.9 °F 35.5 °F 30.9 °F 76% 30.01 in 10.0 mi SW 3.5 mph - N/A   Clear
6:56 PM 36.0 °F - 30.0 °F 79% 30.01 in 10.0 mi Calm Calm - N/A   Clear
7:56 PM 35.1 °F 31.0 °F 30.0 °F 82% 30.01 in 9.0 mi West 4.6 mph - N/A   Clear
8:56 PM 39.0 °F 33.4 °F 30.9 °F 73% 30.02 in 10.0 mi West 8.1 mph - N/A   Mostly Cloudy
9:56 PM 37.9 °F 34.4 °F 27.0 °F 65% 30.03 in 10.0 mi WNW 4.6 mph - N/A   Clear
10:56 PM 36.0 °F 32.1 °F 26.1 °F 67% 30.03 in 10.0 mi West 4.6 mph - N/A   Clear
11:56 PM 34.0 °F 31.0 °F 25.0 °F 70% 30.04 in 10.0 mi West 3.5 mph - N/A   Clear